Time,TemperatureF,DewpointF,PressureIn,WindDirection,WindDirectionDegrees,WindSpeedMPH,WindSpeedGustMPH,Humidity,HourlyPrecipIn,Conditions,Clouds,dailyrainin,SoftwareType,DateUTC
2013-07-20 00:57:00,77.9,67.5,29.10,NNE,23,3.6,3.6,70,0.00,,,0.00,WUHU21623XXSP,2013-07-20 05:57:00,
2013-07-20 01:57:00,77.4,66.6,29.10,NNE,23,3.1,3.1,69,0.00,,,0.00,WUHU21623XXSP,2013-07-20 06:57:00,
2013-07-20 02:57:00,75.9,65.6,29.10,NNE,23,1.1,1.1,70,0.00,,,0.00,WUHU21623XXSP,2013-07-20 07:57:00,
2013-07-20 03:57:00,74.8,65.0,29.10,NNE,23,0.0,0.0,71,0.00,,,0.00,WUHU21623XXSP,2013-07-20 08:57:00,
2013-07-20 04:57:00,73.2,63.8,29.11,NNE,23,0.0,0.0,72,0.00,,,0.00,WUHU21623XXSP,2013-07-20 09:57:00,
2013-07-20 05:57:00,71.4,62.8,29.12,NNE,23,0.0,0.0,74,0.00,,,0.00,WUHU21623XXSP,2013-07-20 10:57:00,
2013-07-20 06:57:00,70.9,62.7,29.13,NNE,23,0.0,0.0,75,0.00,,,0.00,WUHU21623XXSP,2013-07-20 11:57:00,
2013-07-20 07:23:00,71.6,62.9,29.14,NNE,22,0.0,0.0,74,0.00,,,0.00,WUHU21623XXSP,2013-07-20 12:23:00,
2013-07-20 07:28:00,71.8,63.0,29.13,NNE,22,0.4,0.4,74,0.01,,,0.01,WUHU21623XXSP,2013-07-20 12:28:00,
2013-07-20 07:33:00,72.0,62.8,29.13,NNE,22,3.4,3.4,73,0.01,,,0.01,WUHU21623XXSP,2013-07-20 12:33:00,
2013-07-20 07:38:00,72.3,63.0,29.13,NNE,22,3.4,3.4,73,0.01,,,0.01,WUHU21623XXSP,2013-07-20 12:38:00,
2013-07-20 07:43:00,72.5,63.4,29.13,NNE,22,3.6,3.6,73,0.01,,,0.01,WUHU21623XXSP,2013-07-20 12:43:00,
2013-07-20 07:48:00,72.7,63.6,29.13,NNE,22,0.2,3.6,73,0.01,,,0.01,WUHU21623XXSP,2013-07-20 12:48:00,
2013-07-20 07:53:00,73.0,63.7,29.13,NNE,22,0.0,1.6,73,0.01,,,0.01,WUHU21623XXSP,2013-07-20 12:53:00,
2013-07-20 07:58:00,73.2,64.1,29.13,NNE,22,0.0,0.0,73,0.00,,,0.01,WUHU21623XXSP,2013-07-20 12:58:00,
2013-07-20 08:03:00,73.6,64.1,29.14,NNE,22,1.6,1.6,72,0.00,,,0.01,WUHU21623XXSP,2013-07-20 13:03:00,
2013-07-20 08:08:00,74.1,64.5,29.14,NNE,22,1.6,1.6,72,0.00,,,0.01,WUHU21623XXSP,2013-07-20 13:08:00,
2013-07-20 08:13:00,74.5,64.7,29.14,NNE,22,1.6,1.6,72,0.00,,,0.01,WUHU21623XXSP,2013-07-20 13:13:00,
2013-07-20 08:18:00,74.7,64.7,29.14,NNE,22,0.0,2.9,71,0.00,,,0.01,WUHU21623XXSP,2013-07-20 13:18:00,
2013-07-20 08:23:00,75.4,65.3,29.14,ENE,67,0.0,2.9,71,0.00,,,0.01,WUHU21623XXSP,2013-07-20 13:23:00,
2013-07-20 08:28:00,75.7,64.9,29.14,NNE,22,1.3,1.3,70,0.00,,,0.01,WUHU21623XXSP,2013-07-20 13:28:00,
2013-07-20 08:33:00,75.9,65.0,29.14,NNE,22,0.0,2.0,69,0.00,,,0.01,WUHU21623XXSP,2013-07-20 13:33:00,
2013-07-20 08:38:00,76.5,65.1,29.14,NNE,22,0.7,2.0,68,0.00,,,0.01,WUHU21623XXSP,2013-07-20 13:38:00,
2013-07-20 08:43:00,76.8,65.5,29.14,North,0,1.1,2.7,68,0.00,,,0.01,WUHU21623XXSP,2013-07-20 13:43:00,
2013-07-20 08:48:00,77.2,65.4,29.15,North,0,3.1,3.1,67,0.00,,,0.01,WUHU21623XXSP,2013-07-20 13:48:00,
2013-07-20 08:53:00,77.5,65.3,29.15,NNE,22,3.4,3.4,66,0.00,,,0.01,WUHU21623XXSP,2013-07-20 13:53:00,
2013-07-20 08:58:00,77.9,65.2,29.15,NE,45,0.0,3.4,65,0.00,,,0.01,WUHU21623XXSP,2013-07-20 13:58:00,
2013-07-20 09:03:00,78.1,65.3,29.15,NNE,22,1.1,3.4,65,0.00,,,0.01,WUHU21623XXSP,2013-07-20 14:03:00,
2013-07-20 09:08:00,78.6,65.8,29.15,East,90,1.1,1.1,65,0.00,,,0.01,WUHU21623XXSP,2013-07-20 14:08:00,
2013-07-20 09:13:00,79.0,65.8,29.15,NNE,22,2.5,2.5,64,0.00,,,0.01,WUHU21623XXSP,2013-07-20 14:13:00,
2013-07-20 09:18:00,79.3,66.1,29.15,NNE,22,0.0,2.5,64,0.00,,,0.01,WUHU21623XXSP,2013-07-20 14:18:00,
2013-07-20 09:23:00,79.7,66.3,29.15,NNE,22,0.0,0.0,64,0.00,,,0.01,WUHU21623XXSP,2013-07-20 14:23:00,
2013-07-20 09:29:00,79.9,65.7,29.15,NE,45,0.7,0.7,62,0.00,,,0.01,WUHU21623XXSP,2013-07-20 14:29:00,
2013-07-20 09:33:00,80.6,66.4,29.15,NNE,22,3.4,3.4,62,0.00,,,0.01,WUHU21623XXSP,2013-07-20 14:33:00,
2013-07-20 09:38:00,81.0,66.3,29.15,NE,45,0.0,3.4,61,0.00,,,0.01,WUHU21623XXSP,2013-07-20 14:38:00,
2013-07-20 09:43:00,81.1,65.4,29.15,NNE,22,1.3,2.0,59,0.00,,,0.01,WUHU21623XXSP,2013-07-20 14:43:00,
2013-07-20 09:48:00,81.3,65.6,29.15,SE,135,2.2,2.2,59,0.00,,,0.01,WUHU21623XXSP,2013-07-20 14:48:00,
2013-07-20 09:53:00,81.7,65.9,29.16,SE,135,2.2,2.2,58,0.00,,,0.01,WUHU21623XXSP,2013-07-20 14:53:00,
2013-07-20 09:58:00,82.0,65.7,29.16,NNE,22,0.0,2.2,58,0.00,,,0.01,WUHU21623XXSP,2013-07-20 14:58:00,
2013-07-20 10:03:00,82.2,65.4,29.16,NNE,22,2.7,2.7,57,0.00,,,0.01,WUHU21623XXSP,2013-07-20 15:03:00,
2013-07-20 10:08:00,82.6,65.7,29.16,ENE,67,0.0,2.7,57,0.00,,,0.01,WUHU21623XXSP,2013-07-20 15:08:00,
2013-07-20 10:13:00,82.9,65.6,29.17,NNE,22,0.0,6.9,56,0.00,,,0.01,WUHU21623XXSP,2013-07-20 15:13:00,
2013-07-20 10:18:00,83.3,65.4,29.17,NNE,22,0.0,6.9,55,0.00,,,0.01,WUHU21623XXSP,2013-07-20 15:18:00,
2013-07-20 10:23:00,83.5,65.6,29.17,NNE,22,2.5,2.5,55,0.00,,,0.01,WUHU21623XXSP,2013-07-20 15:23:00,
2013-07-20 10:28:00,83.8,64.9,29.17,NNE,22,2.9,6.7,53,0.00,,,0.01,WUHU21623XXSP,2013-07-20 15:28:00,
2013-07-20 10:34:00,84.0,65.6,29.17,NNE,22,2.0,6.7,54,0.00,,,0.01,WUHU21623XXSP,2013-07-20 15:34:00,
2013-07-20 10:39:00,84.6,65.6,29.17,NNE,22,2.9,2.9,53,0.00,,,0.01,WUHU21623XXSP,2013-07-20 15:39:00,
2013-07-20 10:44:00,84.7,65.7,29.17,NE,45,4.3,4.3,53,0.00,,,0.01,WUHU21623XXSP,2013-07-20 15:44:00,
2013-07-20 10:48:00,85.1,65.5,29.17,North,0,4.5,4.5,52,0.00,,,0.01,WUHU21623XXSP,2013-07-20 15:48:00,
2013-07-20 10:53:00,84.9,65.0,29.17,NE,45,4.0,4.5,51,0.00,,,0.01,WUHU21623XXSP,2013-07-20 15:53:00,
2013-07-20 10:58:00,85.1,65.0,29.17,North,0,4.3,4.5,51,0.00,,,0.01,WUHU21623XXSP,2013-07-20 15:58:00,
2013-07-20 11:03:00,85.1,64.5,29.17,NE,45,0.7,4.5,51,0.00,,,0.01,WUHU21623XXSP,2013-07-20 16:03:00,
2013-07-20 11:08:00,85.3,64.7,29.17,NNE,22,2.0,2.0,50,0.00,,,0.01,WUHU21623XXSP,2013-07-20 16:08:00,
2013-07-20 11:13:00,85.3,64.7,29.17,North,0,4.7,4.7,50,0.00,,,0.01,WUHU21623XXSP,2013-07-20 16:13:00,
2013-07-20 11:18:00,85.6,65.0,29.17,NE,45,2.5,4.7,50,0.00,,,0.01,WUHU21623XXSP,2013-07-20 16:18:00,
2013-07-20 11:23:00,85.8,65.1,29.17,NNW,337,3.1,3.6,50,0.00,,,0.01,WUHU21623XXSP,2013-07-20 16:23:00,
2013-07-20 11:28:00,86.2,65.5,29.18,NNE,22,2.2,3.6,50,0.00,,,0.01,WUHU21623XXSP,2013-07-20 16:28:00,
2013-07-20 11:34:00,86.4,65.0,29.18,ENE,67,1.6,3.4,49,0.00,,,0.01,WUHU21623XXSP,2013-07-20 16:34:00,
2013-07-20 11:39:00,86.5,65.2,29.18,NE,45,0.0,3.4,49,0.00,,,0.01,WUHU21623XXSP,2013-07-20 16:39:00,
2013-07-20 11:44:00,86.7,65.3,29.18,NNE,22,6.5,6.5,49,0.00,,,0.01,WUHU21623XXSP,2013-07-20 16:44:00,
2013-07-20 11:49:00,87.1,65.6,29.18,NE,45,1.1,6.5,49,0.00,,,0.01,WUHU21623XXSP,2013-07-20 16:49:00,
2013-07-20 11:54:00,87.1,65.0,29.18,NNE,22,2.7,6.9,48,0.00,,,0.01,WUHU21623XXSP,2013-07-20 16:54:00,
2013-07-20 11:59:00,87.4,65.3,29.18,North,0,5.4,6.9,48,0.00,,,0.01,WUHU21623XXSP,2013-07-20 16:59:00,
2013-07-20 12:04:00,87.4,64.7,29.17,NNE,22,5.1,5.4,47,0.00,,,0.01,WUHU21623XXSP,2013-07-20 17:04:00,
2013-07-20 12:09:00,87.6,65.5,29.18,East,90,1.1,5.1,48,0.00,,,0.01,WUHU21623XXSP,2013-07-20 17:09:00,
2013-07-20 12:14:00,87.8,65.7,29.18,NE,45,2.2,2.2,48,0.00,,,0.01,WUHU21623XXSP,2013-07-20 17:14:00,
2013-07-20 12:19:00,88.0,65.8,29.18,NE,45,0.7,2.2,48,0.00,,,0.01,WUHU21623XXSP,2013-07-20 17:19:00,
2013-07-20 12:24:00,88.2,65.3,29.17,NNE,22,4.3,4.3,47,0.00,,,0.01,WUHU21623XXSP,2013-07-20 17:24:00,
2013-07-20 12:29:00,88.3,66.0,29.18,NNE,22,3.1,4.3,47,0.00,,,0.01,WUHU21623XXSP,2013-07-20 17:29:00,
2013-07-20 12:34:00,88.3,64.8,29.18,North,0,3.6,5.6,46,0.00,,,0.01,WUHU21623XXSP,2013-07-20 17:34:00,
2013-07-20 12:39:00,88.3,64.8,29.18,NNE,22,3.1,5.6,46,0.00,,,0.01,WUHU21623XXSP,2013-07-20 17:39:00,
2013-07-20 12:44:00,88.5,65.0,29.18,North,0,0.0,4.3,46,0.00,,,0.01,WUHU21623XXSP,2013-07-20 17:44:00,
2013-07-20 12:49:00,88.7,65.2,29.18,NNE,22,0.4,0.9,46,0.00,,,0.01,WUHU21623XXSP,2013-07-20 17:49:00,
2013-07-20 12:54:00,88.7,63.9,29.18,NNE,22,2.9,5.6,44,0.00,,,0.01,WUHU21623XXSP,2013-07-20 17:54:00,
2013-07-20 12:59:00,88.7,63.9,29.17,NE,45,3.4,5.6,44,0.00,,,0.01,WUHU21623XXSP,2013-07-20 17:59:00,
2013-07-20 13:04:00,88.5,63.7,29.17,North,0,2.9,4.7,44,0.00,,,0.01,WUHU21623XXSP,2013-07-20 18:04:00,
2013-07-20 13:09:00,88.5,63.7,29.17,ENE,67,0.0,4.7,44,0.00,,,0.01,WUHU21623XXSP,2013-07-20 18:09:00,
2013-07-20 13:14:00,88.5,63.7,29.18,NNE,22,3.1,3.1,44,0.00,,,0.01,WUHU21623XXSP,2013-07-20 18:14:00,
2013-07-20 13:19:00,88.9,64.0,29.17,East,90,0.4,3.1,44,0.00,,,0.01,WUHU21623XXSP,2013-07-20 18:19:00,
2013-07-20 13:24:00,88.9,64.7,29.17,NNE,22,4.0,4.0,45,0.00,,,0.01,WUHU21623XXSP,2013-07-20 18:24:00,
2013-07-20 13:29:00,88.9,64.0,29.16,NNE,22,0.0,6.3,44,0.00,,,0.01,WUHU21623XXSP,2013-07-20 18:29:00,
2013-07-20 13:34:00,89.1,64.2,29.16,ESE,112,0.9,6.3,44,0.00,,,0.01,WUHU21623XXSP,2013-07-20 18:34:00,
2013-07-20 13:39:00,89.2,64.3,29.16,North,0,1.8,2.5,44,0.00,,,0.01,WUHU21623XXSP,2013-07-20 18:39:00,
2013-07-20 13:44:00,89.2,64.3,29.16,NNE,22,2.2,2.2,44,0.00,,,0.01,WUHU21623XXSP,2013-07-20 18:44:00,
2013-07-20 13:49:00,89.4,65.1,29.15,NNE,22,0.4,2.2,45,0.00,,,0.01,WUHU21623XXSP,2013-07-20 18:49:00,
2013-07-20 13:54:00,89.8,65.5,29.15,NNE,22,1.3,1.3,45,0.00,,,0.01,WUHU21623XXSP,2013-07-20 18:54:00,
2013-07-20 13:59:00,90.1,65.1,29.15,ENE,67,0.2,1.6,44,0.00,,,0.01,WUHU21623XXSP,2013-07-20 18:59:00,
2013-07-20 14:05:00,90.3,65.3,29.15,ENE,67,2.5,2.5,44,0.00,,,0.01,WUHU21623XXSP,2013-07-20 19:05:00,
2013-07-20 14:10:00,90.3,65.3,29.15,South,180,0.0,2.5,44,0.00,,,0.01,WUHU21623XXSP,2013-07-20 19:10:00,
2013-07-20 14:15:00,90.3,64.7,29.15,NNE,22,4.7,4.7,43,0.00,,,0.01,WUHU21623XXSP,2013-07-20 19:15:00,
2013-07-20 14:20:00,90.3,65.3,29.15,NNE,22,2.7,4.7,44,0.00,,,0.01,WUHU21623XXSP,2013-07-20 19:20:00,
2013-07-20 14:25:00,90.5,65.5,29.15,NE,45,1.3,2.9,44,0.00,,,0.01,WUHU21623XXSP,2013-07-20 19:25:00,
2013-07-20 14:30:00,90.5,65.6,29.15,NE,45,0.0,2.9,44,0.00,,,0.01,WUHU21623XXSP,2013-07-20 19:30:00,
2013-07-20 14:35:00,90.7,65.6,29.15,NNE,22,5.4,5.4,44,0.00,,,0.01,WUHU21623XXSP,2013-07-20 19:35:00,
2013-07-20 14:41:00,90.7,65.6,29.15,East,90,0.0,5.4,44,0.00,,,0.01,WUHU21623XXSP,2013-07-20 19:41:00,
2013-07-20 14:46:00,90.7,65.5,29.15,NE,45,2.9,2.9,43,0.00,,,0.01,WUHU21623XXSP,2013-07-20 19:46:00,
2013-07-20 14:51:00,90.7,65.6,29.14,WSW,247,0.0,2.9,44,0.00,,,0.01,WUHU21623XXSP,2013-07-20 19:51:00,
2013-07-20 14:56:00,90.7,65.0,29.14,NNE,22,6.3,6.3,43,0.00,,,0.01,WUHU21623XXSP,2013-07-20 19:56:00,
2013-07-20 15:02:00,90.3,64.8,29.14,NNE,22,0.9,6.3,43,0.00,,,0.01,WUHU21623XXSP,2013-07-20 20:02:00,
2013-07-20 15:07:00,90.3,64.7,29.14,North,0,6.0,6.3,43,0.00,,,0.01,WUHU21623XXSP,2013-07-20 20:07:00,
2013-07-20 15:12:00,90.3,64.7,29.14,NE,45,3.4,6.0,43,0.00,,,0.01,WUHU21623XXSP,2013-07-20 20:12:00,
2013-07-20 15:17:00,90.3,65.3,29.14,NNE,22,0.0,3.4,44,0.00,,,0.01,WUHU21623XXSP,2013-07-20 20:17:00,
2013-07-20 15:22:00,90.3,64.7,29.14,NE,45,0.0,2.7,43,0.00,,,0.01,WUHU21623XXSP,2013-07-20 20:22:00,
2013-07-20 15:28:00,90.1,65.1,29.14,NNE,22,0.9,0.9,44,0.00,,,0.01,WUHU21623XXSP,2013-07-20 20:28:00,
2013-07-20 15:33:00,90.0,65.0,29.14,NNE,22,0.0,1.6,44,0.00,,,0.01,WUHU21623XXSP,2013-07-20 20:33:00,
2013-07-20 15:38:00,90.1,65.1,29.14,NE,45,0.2,1.6,44,0.00,,,0.01,WUHU21623XXSP,2013-07-20 20:38:00,
2013-07-20 15:43:00,90.1,64.5,29.13,West,270,0.9,0.9,43,0.00,,,0.01,WUHU21623XXSP,2013-07-20 20:43:00,
2013-07-20 15:48:00,90.1,65.8,29.13,NNE,22,0.0,2.5,45,0.00,,,0.01,WUHU21623XXSP,2013-07-20 20:48:00,
2013-07-20 15:53:00,90.3,65.3,29.13,NNE,22,3.1,3.1,44,0.00,,,0.01,WUHU21623XXSP,2013-07-20 20:53:00,
2013-07-20 15:58:00,90.7,65.6,29.13,NNE,22,0.0,3.1,44,0.00,,,0.01,WUHU21623XXSP,2013-07-20 20:58:00,
2013-07-20 16:03:00,90.7,65.6,29.13,NNE,22,0.0,2.5,44,0.00,,,0.01,WUHU21623XXSP,2013-07-20 21:03:00,
2013-07-20 16:08:00,90.7,65.0,29.12,North,0,0.9,0.9,43,0.00,,,0.01,WUHU21623XXSP,2013-07-20 21:08:00,
2013-07-20 16:14:00,90.7,65.6,29.12,East,90,0.0,0.9,44,0.00,,,0.01,WUHU21623XXSP,2013-07-20 21:14:00,
2013-07-20 16:19:00,91.0,65.8,29.12,NNE,22,3.1,3.1,43,0.00,,,0.01,WUHU21623XXSP,2013-07-20 21:19:00,
2013-07-20 16:24:00,90.9,65.1,29.13,NNE,22,2.0,3.1,43,0.00,,,0.01,WUHU21623XXSP,2013-07-20 21:24:00,
2013-07-20 16:29:00,90.7,65.0,29.13,NE,45,0.0,4.3,43,0.00,,,0.01,WUHU21623XXSP,2013-07-20 21:29:00,
2013-07-20 16:34:00,91.0,65.9,29.13,NNE,22,3.4,4.3,44,0.00,,,0.01,WUHU21623XXSP,2013-07-20 21:34:00,
2013-07-20 16:39:00,91.0,65.9,29.12,NNE,22,0.0,3.4,44,0.00,,,0.01,WUHU21623XXSP,2013-07-20 21:39:00,
2013-07-20 16:44:00,91.0,65.9,29.12,NNE,22,2.7,3.4,44,0.00,,,0.01,WUHU21623XXSP,2013-07-20 21:44:00,
2013-07-20 16:50:00,90.9,65.8,29.12,ESE,112,0.0,2.7,44,0.00,,,0.01,WUHU21623XXSP,2013-07-20 21:50:00,
2013-07-20 16:55:00,90.7,66.3,29.12,NNE,22,2.7,2.7,45,0.00,,,0.01,WUHU21623XXSP,2013-07-20 21:55:00,
2013-07-20 17:00:00,90.7,66.3,29.12,NNW,337,3.6,3.6,45,0.00,,,0.01,WUHU21623XXSP,2013-07-20 22:00:00,
2013-07-20 17:05:00,90.3,66.1,29.12,NE,45,4.9,4.9,45,0.00,,,0.01,WUHU21623XXSP,2013-07-20 22:05:00,
2013-07-20 17:10:00,90.5,66.8,29.11,NNE,22,4.9,4.9,46,0.00,,,0.01,WUHU21623XXSP,2013-07-20 22:10:00,
2013-07-20 17:15:00,90.5,66.8,29.11,WNW,292,2.7,4.9,46,0.00,,,0.01,WUHU21623XXSP,2013-07-20 22:15:00,
2013-07-20 17:20:00,90.5,66.8,29.11,NNE,22,0.0,4.9,46,0.00,,,0.01,WUHU21623XXSP,2013-07-20 22:20:00,
2013-07-20 17:25:00,90.5,67.4,29.11,NNE,22,0.0,2.0,47,0.00,,,0.01,WUHU21623XXSP,2013-07-20 22:25:00,
2013-07-20 17:30:00,90.7,66.9,29.10,NNE,22,0.0,0.0,46,0.00,,,0.01,WUHU21623XXSP,2013-07-20 22:30:00,
2013-07-20 17:35:00,90.7,66.9,29.10,NNE,22,4.5,4.5,46,0.00,,,0.01,WUHU21623XXSP,2013-07-20 22:35:00,
2013-07-20 17:40:00,90.3,66.6,29.10,NNE,22,0.0,4.5,46,0.00,,,0.01,WUHU21623XXSP,2013-07-20 22:40:00,
2013-07-20 17:46:00,90.3,66.6,29.10,West,270,2.0,2.0,46,0.00,,,0.01,WUHU21623XXSP,2013-07-20 22:46:00,
2013-07-20 17:51:00,90.3,67.2,29.11,North,0,0.0,2.0,47,0.00,,,0.01,WUHU21623XXSP,2013-07-20 22:51:00,
2013-07-20 17:56:00,90.3,67.2,29.10,North,0,0.0,0.0,47,0.00,,,0.01,WUHU21623XXSP,2013-07-20 22:56:00,
2013-07-20 18:02:00,90.3,67.2,29.10,North,0,0.0,0.0,47,0.00,,,0.01,WUHU21623XXSP,2013-07-20 23:02:00,
2013-07-20 18:07:00,90.3,67.2,29.11,North,0,0.0,0.0,47,0.00,,,0.01,WUHU21623XXSP,2013-07-20 23:07:00,
2013-07-20 18:12:00,89.8,66.8,29.12,North,0,0.0,0.7,47,0.00,,,0.01,WUHU21623XXSP,2013-07-20 23:12:00,
2013-07-20 18:17:00,89.6,67.2,29.12,North,0,0.0,0.7,48,0.00,,,0.01,WUHU21623XXSP,2013-07-20 23:17:00,
2013-07-20 18:22:00,89.4,67.7,29.12,North,0,0.0,0.4,49,0.00,,,0.01,WUHU21623XXSP,2013-07-20 23:22:00,
2013-07-20 18:27:00,89.1,66.9,29.12,North,0,0.0,0.0,48,0.00,,,0.01,WUHU21623XXSP,2013-07-20 23:27:00,
2013-07-20 18:32:00,88.9,67.2,29.12,North,0,0.0,0.0,49,0.00,,,0.01,WUHU21623XXSP,2013-07-20 23:32:00,
2013-07-20 18:37:00,88.5,67.6,29.12,North,0,0.0,0.0,50,0.00,,,0.01,WUHU21623XXSP,2013-07-20 23:37:00,
2013-07-20 18:42:00,88.3,67.4,29.12,North,0,0.0,0.0,50,0.00,,,0.01,WUHU21623XXSP,2013-07-20 23:42:00,
2013-07-20 18:48:00,88.3,67.9,29.12,North,0,0.0,0.0,51,0.00,,,0.01,WUHU21623XXSP,2013-07-20 23:48:00,
2013-07-20 18:53:00,88.2,67.2,29.12,North,0,0.7,0.7,50,0.00,,,0.01,WUHU21623XXSP,2013-07-20 23:53:00,
2013-07-20 18:58:00,87.6,67.3,29.12,NNE,22,0.0,0.7,51,0.00,,,0.01,WUHU21623XXSP,2013-07-20 23:58:00,
2013-07-20 19:03:00,87.6,67.8,29.12,NNE,22,0.0,0.0,52,0.00,,,0.01,WUHU21623XXSP,2013-07-21 00:03:00,
2013-07-20 19:08:00,87.1,67.3,29.13,NNE,22,0.0,0.0,52,0.00,,,0.01,WUHU21623XXSP,2013-07-21 00:08:00,
2013-07-20 19:13:00,86.7,67.5,29.13,NNE,22,0.0,0.0,53,0.00,,,0.01,WUHU21623XXSP,2013-07-21 00:13:00,
2013-07-20 19:18:00,86.2,67.6,29.13,NNE,22,0.0,0.0,54,0.00,,,0.01,WUHU21623XXSP,2013-07-21 00:18:00,
2013-07-20 19:23:00,86.2,67.6,29.13,NNE,22,0.7,1.3,54,0.00,,,0.01,WUHU21623XXSP,2013-07-21 00:23:00,
2013-07-20 19:29:00,85.8,67.2,29.13,NNE,22,1.8,1.8,54,0.00,,,0.01,WUHU21623XXSP,2013-07-21 00:29:00,
2013-07-20 19:34:00,85.5,67.4,29.13,NNE,22,0.0,1.8,55,0.00,,,0.01,WUHU21623XXSP,2013-07-21 00:34:00,
2013-07-20 19:39:00,85.3,67.3,29.13,NNE,22,0.0,0.0,55,0.00,,,0.01,WUHU21623XXSP,2013-07-21 00:39:00,
2013-07-20 19:44:00,84.9,67.5,29.13,NNE,22,0.0,0.0,56,0.00,,,0.01,WUHU21623XXSP,2013-07-21 00:44:00,
2013-07-20 19:49:00,84.9,67.5,29.14,NNE,22,0.0,0.0,56,0.00,,,0.01,WUHU21623XXSP,2013-07-21 00:49:00,
2013-07-20 19:54:00,84.7,67.3,29.14,NNE,22,0.0,0.0,56,0.00,,,0.01,WUHU21623XXSP,2013-07-21 00:54:00,
2013-07-20 19:59:00,84.6,67.1,29.14,NNE,22,0.0,0.0,56,0.00,,,0.01,WUHU21623XXSP,2013-07-21 00:59:00,
2013-07-20 20:04:00,84.4,67.0,29.15,NNE,22,0.0,0.0,56,0.00,,,0.01,WUHU21623XXSP,2013-07-21 01:04:00,
2013-07-20 20:09:00,84.0,67.2,29.15,NNE,22,0.0,0.0,57,0.00,,,0.01,WUHU21623XXSP,2013-07-21 01:09:00,
2013-07-20 20:15:00,84.0,67.2,29.15,NNE,22,0.0,0.0,57,0.00,,,0.01,WUHU21623XXSP,2013-07-21 01:15:00,
2013-07-20 20:20:00,83.8,67.0,29.15,NNE,22,0.0,0.0,57,0.00,,,0.01,WUHU21623XXSP,2013-07-21 01:20:00,
2013-07-20 20:25:00,83.5,66.6,29.15,NNE,22,0.0,0.0,57,0.00,,,0.01,WUHU21623XXSP,2013-07-21 01:25:00,
2013-07-20 20:30:00,83.5,67.1,29.15,NNE,22,0.0,0.0,58,0.00,,,0.01,WUHU21623XXSP,2013-07-21 01:30:00,
2013-07-20 20:35:00,83.1,67.0,29.15,SE,135,0.0,0.0,58,0.00,,,0.01,WUHU21623XXSP,2013-07-21 01:35:00,
2013-07-20 20:40:00,82.9,66.6,29.15,SE,135,0.0,0.0,58,0.00,,,0.01,WUHU21623XXSP,2013-07-21 01:40:00,
2013-07-20 20:45:00,82.8,66.6,29.15,SE,135,0.0,0.0,58,0.00,,,0.01,WUHU21623XXSP,2013-07-21 01:45:00,
2013-07-20 20:51:00,82.4,66.1,29.15,SE,135,0.0,0.0,58,0.00,,,0.01,WUHU21623XXSP,2013-07-21 01:51:00,
2013-07-20 20:56:00,82.2,65.9,29.15,SE,135,0.0,0.0,58,0.00,,,0.01,WUHU21623XXSP,2013-07-21 01:56:00,
2013-07-20 21:01:00,82.0,66.4,29.15,SE,135,0.0,0.0,59,0.00,,,0.01,WUHU21623XXSP,2013-07-21 02:01:00,
2013-07-20 21:06:00,82.0,65.7,29.15,SE,135,0.0,0.0,58,0.00,,,0.01,WUHU21623XXSP,2013-07-21 02:06:00,
2013-07-20 21:11:00,81.7,65.6,29.15,SE,135,0.0,0.0,58,0.00,,,0.01,WUHU21623XXSP,2013-07-21 02:11:00,
2013-07-20 21:16:00,81.7,65.4,29.15,SE,135,0.0,0.0,58,0.00,,,0.01,WUHU21623XXSP,2013-07-21 02:16:00,
2013-07-20 21:21:00,81.5,65.2,29.15,SE,135,0.0,0.0,58,0.00,,,0.01,WUHU21623XXSP,2013-07-21 02:21:00,
2013-07-20 21:26:00,81.3,65.1,29.15,SE,135,0.0,0.0,59,0.00,,,0.01,WUHU21623XXSP,2013-07-21 02:26:00,
2013-07-20 21:31:00,81.3,65.6,29.15,SE,135,0.0,0.0,59,0.00,,,0.01,WUHU21623XXSP,2013-07-21 02:31:00,
2013-07-20 21:36:00,81.1,65.4,29.16,SE,135,0.0,0.0,59,0.00,,,0.01,WUHU21623XXSP,2013-07-21 02:36:00,
2013-07-20 21:42:00,81.1,65.4,29.16,SE,135,0.0,0.0,59,0.00,,,0.01,WUHU21623XXSP,2013-07-21 02:42:00,
2013-07-20 21:47:00,81.0,65.4,29.16,SE,135,0.0,0.0,59,0.00,,,0.01,WUHU21623XXSP,2013-07-21 02:47:00,
2013-07-20 21:52:00,80.8,65.1,29.16,SE,135,0.0,0.0,59,0.00,,,0.01,WUHU21623XXSP,2013-07-21 02:52:00,
2013-07-20 21:57:00,80.6,65.5,29.16,SE,135,0.0,0.0,60,0.00,,,0.01,WUHU21623XXSP,2013-07-21 02:57:00,
2013-07-20 22:02:00,80.4,65.3,29.16,SE,135,0.0,0.0,60,0.00,,,0.01,WUHU21623XXSP,2013-07-21 03:02:00,
2013-07-20 22:07:00,80.2,65.3,29.15,SE,135,0.0,0.0,60,0.00,,,0.01,WUHU21623XXSP,2013-07-21 03:07:00,
2013-07-20 22:12:00,80.2,65.6,29.15,SE,135,0.0,0.0,61,0.00,,,0.01,WUHU21623XXSP,2013-07-21 03:12:00,
2013-07-20 22:18:00,79.9,65.3,29.16,SE,135,0.0,0.0,61,0.00,,,0.01,WUHU21623XXSP,2013-07-21 03:18:00,
2013-07-20 22:23:00,79.3,65.6,29.16,NE,45,0.0,0.4,63,0.00,,,0.01,WUHU21623XXSP,2013-07-21 03:23:00,
2013-07-20 22:28:00,78.8,65.9,29.16,NE,45,0.0,0.4,64,0.00,,,0.01,WUHU21623XXSP,2013-07-21 03:28:00,
2013-07-20 22:34:00,78.4,65.4,29.16,NE,45,0.0,0.0,64,0.00,,,0.01,WUHU21623XXSP,2013-07-21 03:34:00,
2013-07-20 22:39:00,78.4,65.2,29.16,NE,45,0.0,0.0,65,0.00,,,0.01,WUHU21623XXSP,2013-07-21 03:39:00,
2013-07-20 22:44:00,78.1,65.3,29.16,NE,45,0.4,0.4,65,0.00,,,0.01,WUHU21623XXSP,2013-07-21 03:44:00,
2013-07-20 22:49:00,78.1,65.3,29.16,NE,45,0.7,0.7,65,0.00,,,0.01,WUHU21623XXSP,2013-07-21 03:49:00,
2013-07-20 22:54:00,77.7,65.6,29.16,NNE,22,0.9,0.9,66,0.00,,,0.01,WUHU21623XXSP,2013-07-21 03:54:00,
2013-07-20 22:59:00,77.5,65.3,29.16,NNE,22,0.0,0.9,66,0.00,,,0.01,WUHU21623XXSP,2013-07-21 03:59:00,
2013-07-20 23:01:00,77.5,65.3,29.16,NNE,22,0.0,0.9,66,0.00,,,0.01,WUHU21623XXSP,2013-07-21 04:01:00,
2013-07-20 23:02:00,77.4,65.1,29.16,NNE,22,0.0,0.9,66,0.00,,,0.01,WUHU21623XXSP,2013-07-21 04:02:00,
2013-07-20 23:07:00,77.4,65.1,29.16,NNE,22,0.0,0.0,66,0.00,,,0.01,WUHU21623XXSP,2013-07-21 04:07:00,
2013-07-20 23:12:00,77.2,65.4,29.16,NNE,22,0.0,0.0,67,0.00,,,0.01,WUHU21623XXSP,2013-07-21 04:12:00,
2013-07-20 23:17:00,77.2,65.4,29.16,NNE,22,0.0,0.0,67,0.00,,,0.01,WUHU21623XXSP,2013-07-21 04:17:00,
2013-07-20 23:57:00,76.1,64.6,29.17,NNE,23,0.0,0.0,67,0.00,,,0.00,WUHU21623XXSP,2013-07-21 04:57:00,